Precipitable_Water
0.31 0.30 0.30 0.36 0.34 0.34 0.31 0.30 0.28 0.26 0.26 0.26 0.26 0.26 0.31 0.35 0.41 0.44 0.46 0.48 0.52 0.41 0.42 0.42 0.47 0.52 0.55 0.57 0.67 0.69 0.71 0.70 0.65 0.66 0.70 0.73 0.74 0.73 0.78 0.80 0.91 0.91 0.90 0.91 0.90 0.90 0.87 0.87 0.86 0.81 0.83 0.83 0.84 0.85 0.91 0.93 0.92 0.95 0.94 0.91 0.85 0.86 0.79 0.74 0.71 0.68 0.65 0.62 0.59 0.61 0.56 0.59 0.63 0.64 0.70 0.71 0.76 0.78 0.81 0.82 0.85 0.83 0.82 0.85 0.86 0.83
0.28 0.31 0.44 0.37 0.34 0.31 0.28 0.27 0.27 0.27 0.28 0.28 0.27 0.29 0.31 0.31 0.31 0.41 0.43 0.45 0.49 0.43 0.43 0.42 0.39 0.47 0.53 0.56 0.65 0.71 0.76 0.72 0.70 0.67 0.67 0.71 0.73 0.75 0.78 0.82 0.92 1.09 0.97 0.95 0.94 0.93 0.91 0.90 0.90 0.89 0.86 0.85 0.80 0.85 0.90 0.90 0.91 0.93 0.96 0.92 0.87 0.86 0.83 0.74 0.72 0.70 0.67 0.65 0.61 0.58 0.54 0.57 0.60 0.62 0.65 0.65 0.71 0.75 0.78 0.79 0.79 0.78 0.84 0.85 0.83 0.82
0.34 0.32 0.34 0.35 0.31 0.27 0.28 0.30 0.30 0.28 0.27 0.30 0.31 0.35 0.33 0.35 0.36 0.37 0.42 0.41 0.46 0.43 0.36 0.44 0.40 0.50 0.55 0.61 0.62 0.62 0.57 0.67 0.74 0.72 0.70 0.72 0.72 0.70 0.76 0.86 0.94 1.01 1.04 1.00 0.96 0.96 0.93 0.94 0.95 0.94 0.90 0.87 0.88 0.88 0.90 0.98 0.94 0.96 0.98 0.92 0.89 0.84 0.83 0.76 0.75 0.74 0.66 0.65 0.64 0.61 0.56 0.59 0.58 0.67 0.68 0.70 0.72 0.74 0.74 0.77 0.77 0.82 0.84 0.84 0.81 0.81
0.36 0.39 0.31 0.29 0.27 0.23 0.27 0.30 0.30 0.28 0.31 0.28 0.27 0.29 0.32 0.35 0.33 0.30 0.37 0.34 0.33 0.35 0.37 0.40 0.41 0.50 0.57 0.65 0.61 0.61 0.63 0.65 0.71 0.73 0.76 0.77 0.76 0.80 0.84 0.89 0.90 0.81 0.88 0.99 0.98 0.96 0.95 0.97 0.96 0.95 0.94 0.92 0.92 0.93 0.91 0.96 0.94 0.96 0.98 0.88 0.90 0.86 0.85 0.78 0.77 0.76 0.70 0.66 0.65 0.65 0.59 0.60 0.59 0.60 0.68 0.68 0.70 0.69 0.69 0.72 0.77 0.78 0.78 0.78 0.78 0.77
0.35 0.34 0.31 0.26 0.28 0.27 0.26 0.28 0.32 0.30 0.28 0.30 0.31 0.31 0.34 0.29 0.33 0.29 0.28 0.31 0.32 0.36 0.40 0.39 0.35 0.42 0.46 0.46 0.56 0.66 0.67 0.64 0.65 0.67 0.71 0.77 0.82 0.86 0.91 0.88 0.89 0.88 0.81 0.89 0.98 1.00 1.02 1.01 1.01 0.98 0.99 1.00 0.94 0.96 0.93 0.96 0.96 0.94 0.95 0.90 0.91 0.89 0.85 0.80 0.78 0.77 0.70 0.65 0.62 0.63 0.59 0.60 0.58 0.60 0.63 0.64 0.61 0.62 0.64 0.68 0.68 0.70 0.75 0.74 0.73 0.75
0.30 0.30 0.28 0.28 0.32 0.31 0.27 0.30 0.31 0.25 0.27 0.30 0.34 0.29 0.32 0.28 0.26 0.26 0.28 0.30 0.28 0.31 0.39 0.32 0.24 0.27 0.42 0.54 0.56 0.56 0.56 0.57 0.64 0.65 0.64 0.72 0.81 0.84 0.83 0.81 0.84 0.87 0.86 0.87 1.01 1.06 1.09 1.06 1.07 1.04 1.02 1.00 0.95 0.94 0.98 1.01 1.00 0.98 0.98 0.96 0.91 0.91 0.89 0.82 0.78 0.75 0.68 0.62 0.59 0.58 0.51 0.50 0.49 0.48 0.52 0.55 0.55 0.58 0.61 0.62 0.65 0.69 0.70 0.69 0.70 0.73
0.24 0.32 0.29 0.23 0.28 0.27 0.30 0.31 0.30 0.25 0.25 0.27 0.31 0.29 0.31 0.25 0.24 0.26 0.26 0.26 0.24 0.24 0.30 0.32 0.26 0.26 0.39 0.42 0.45 0.53 0.52 0.54 0.58 0.63 0.75 0.72 0.72 0.76 0.81 0.86 0.83 0.85 0.88 0.92 0.94 0.96 1.02 1.05 1.04 1.04 1.02 1.00 0.95 0.94 0.99 1.03 1.03 1.00 0.99 0.96 0.92 0.91 0.88 0.84 0.78 0.74 0.69 0.63 0.59 0.57 0.54 0.53 0.51 0.47 0.52 0.59 0.62 0.63 0.67 0.69 0.65 0.66 0.69 0.73 0.70 0.73
0.29 0.27 0.32 0.31 0.31 0.30 0.30 0.29 0.29 0.25 0.23 0.28 0.29 0.28 0.26 0.25 0.25 0.26 0.26 0.25 0.26 0.30 0.31 0.35 0.32 0.26 0.28 0.41 0.49 0.46 0.44 0.45 0.53 0.63 0.69 0.76 0.75 0.75 0.80 0.85 0.85 0.84 0.87 0.88 0.87 0.91 0.97 0.95 0.88 0.93 1.01 1.00 0.99 0.98 1.04 1.03 1.03 0.98 0.98 0.98 0.90 0.89 0.86 0.85 0.77 0.75 0.71 0.63 0.59 0.57 0.54 0.54 0.52 0.51 0.50 0.54 0.61 0.67 0.68 0.67 0.66 0.65 0.72 0.75 0.75 0.73
0.27 0.28 0.24 0.26 0.28 0.32 0.28 0.25 0.25 0.23 0.21 0.27 0.29 0.26 0.22 0.23 0.23 0.23 0.24 0.25 0.27 0.26 0.23 0.30 0.35 0.27 0.26 0.41 0.47 0.43 0.40 0.41 0.44 0.54 0.62 0.66 0.71 0.76 0.79 0.81 0.84 0.86 0.90 0.89 0.87 0.91 0.93 0.92 0.91 0.97 1.03 1.03 1.03 1.01 0.99 1.00 1.03 1.01 0.99 0.98 0.93 0.90 0.88 0.85 0.77 0.73 0.72 0.67 0.62 0.59 0.54 0.50 0.54 0.54 0.53 0.56 0.61 0.64 0.69 0.65 0.65 0.66 0.71 0.75 0.75 0.73
0.27 0.22 0.21 0.22 0.27 0.26 0.23 0.27 0.26 0.24 0.22 0.26 0.26 0.26 0.28 0.29 0.28 0.28 0.27 0.27 0.29 0.27 0.26 0.32 0.35 0.27 0.27 0.33 0.38 0.43 0.40 0.41 0.49 0.53 0.58 0.67 0.72 0.74 0.76 0.81 0.84 0.87 0.88 0.91 0.90 0.91 0.93 0.94 0.96 1.00 1.03 1.01 1.00 1.00 1.01 1.00 1.03 1.02 1.00 0.97 0.92 0.89 0.89 0.84 0.77 0.76 0.72 0.69 0.64 0.57 0.55 0.51 0.54 0.52 0.54 0.55 0.56 0.61 0.64 0.64 0.65 0.67 0.71 0.73 0.75 0.77
0.22 0.30 0.19 0.22 0.21 0.24 0.26 0.30 0.29 0.23 0.26 0.30 0.31 0.30 0.31 0.32 0.32 0.35 0.31 0.31 0.31 0.23 0.25 0.26 0.33 0.36 0.22 0.30 0.36 0.35 0.40 0.47 0.52 0.47 0.51 0.58 0.63 0.67 0.67 0.68 0.72 0.78 0.81 0.88 0.91 0.86 0.85 0.93 0.98 0.98 0.97 0.99 1.02 0.99 0.97 0.98 0.98 1.02 1.00 0.97 0.91 0.88 0.86 0.81 0.78 0.75 0.71 0.69 0.67 0.59 0.57 0.55 0.54 0.52 0.51 0.51 0.51 0.56 0.61 0.60 0.61 0.66 0.69 0.75 0.76 0.80
0.32 0.33 0.29 0.27 0.26 0.25 0.31 0.34 0.37 0.32 0.33 0.34 0.31 0.28 0.31 0.32 0.29 0.28 0.31 0.30 0.23 0.22 0.28 0.30 0.32 0.27 0.19 0.31 0.38 0.45 0.52 0.50 0.51 0.47 0.56 0.55 0.56 0.59 0.62 0.63 0.67 0.67 0.71 0.74 0.80 0.81 0.88 0.92 0.94 1.00 0.96 0.98 0.98 0.97 0.95 0.95 0.96 1.00 1.02 0.97 0.89 0.85 0.82 0.80 0.79 0.73 0.72 0.69 0.67 0.63 0.60 0.57 0.56 0.54 0.51 0.50 0.51 0.56 0.58 0.60 0.58 0.64 0.72 0.75 0.77 0.80
0.31 0.30 0.24 0.29 0.30 0.24 0.32 0.30 0.34 0.34 0.34 0.33 0.30 0.28 0.26 0.24 0.21 0.19 0.22 0.18 0.19 0.19 0.28 0.28 0.28 0.21 0.26 0.32 0.39 0.47 0.55 0.54 0.54 0.52 0.59 0.62 0.62 0.67 0.62 0.68 0.68 0.69 0.67 0.73 0.81 0.82 0.88 0.88 0.90 0.90 0.93 0.95 0.95 0.94 0.94 0.95 0.95 0.94 0.96 0.93 0.85 0.82 0.82 0.81 0.79 0.72 0.71 0.70 0.67 0.62 0.59 0.59 0.59 0.57 0.54 0.52 0.53 0.57 0.58 0.59 0.58 0.62 0.66 0.72 0.74 0.78
0.31 0.32 0.25 0.27 0.34 0.31 0.30 0.22 0.24 0.26 0.24 0.30 0.25 0.24 0.24 0.21 0.18 0.14 0.17 0.19 0.20 0.23 0.26 0.27 0.27 0.25 0.30 0.35 0.42 0.43 0.47 0.52 0.56 0.58 0.60 0.59 0.54 0.56 0.61 0.65 0.71 0.77 0.81 0.85 0.87 0.90 0.84 0.86 0.88 0.91 0.89 0.90 0.93 0.94 0.95 0.96 0.94 0.92 0.88 0.85 0.83 0.82 0.84 0.82 0.78 0.73 0.70 0.69 0.70 0.68 0.62 0.61 0.62 0.59 0.56 0.54 0.53 0.54 0.57 0.59 0.58 0.62 0.67 0.71 0.75 0.78
0.23 0.28 0.27 0.20 0.21 0.23 0.27 0.23 0.25 0.22 0.26 0.33 0.30 0.28 0.28 0.25 0.16 0.15 0.19 0.14 0.17 0.19 0.22 0.27 0.21 0.22 0.25 0.29 0.41 0.43 0.50 0.52 0.54 0.56 0.59 0.64 0.64 0.61 0.57 0.67 0.71 0.71 0.73 0.72 0.78 0.78 0.85 0.90 0.86 0.90 0.86 0.88 0.97 1.00 0.98 0.96 0.94 0.91 0.87 0.83 0.81 0.81 0.82 0.83 0.77 0.74 0.69 0.68 0.69 0.70 0.66 0.64 0.63 0.62 0.58 0.55 0.56 0.57 0.56 0.60 0.62 0.67 0.71 0.72 0.76 0.78
0.20 0.21 0.24 0.27 0.23 0.22 0.23 0.22 0.29 0.28 0.32 0.32 0.32 0.37 0.30 0.22 0.22 0.19 0.21 0.18 0.18 0.22 0.23 0.24 0.23 0.29 0.32 0.41 0.44 0.48 0.44 0.49 0.52 0.56 0.54 0.53 0.63 0.64 0.63 0.57 0.61 0.63 0.61 0.69 0.73 0.72 0.75 0.80 0.84 0.91 0.96 0.94 0.88 0.95 0.90 0.89 0.88 0.88 0.85 0.83 0.84 0.83 0.81 0.78 0.75 0.73 0.71 0.67 0.67 0.68 0.64 0.64 0.63 0.64 0.60 0.57 0.57 0.58 0.59 0.62 0.67 0.70 0.73 0.76 0.79 0.81
0.32 0.27 0.32 0.26 0.31 0.28 0.22 0.23 0.25 0.30 0.22 0.28 0.33 0.28 0.23 0.25 0.27 0.21 0.25 0.28 0.27 0.25 0.21 0.25 0.27 0.31 0.41 0.40 0.43 0.45 0.43 0.45 0.48 0.49 0.49 0.52 0.57 0.58 0.57 0.62 0.62 0.61 0.62 0.66 0.67 0.68 0.75 0.77 0.77 0.78 0.82 0.87 0.84 0.86 0.88 0.86 0.88 0.88 0.87 0.85 0.83 0.84 0.81 0.75 0.73 0.72 0.71 0.68 0.67 0.66 0.65 0.65 0.64 0.63 0.59 0.56 0.54 0.57 0.61 0.64 0.69 0.73 0.77 0.80 0.83 0.85
0.31 0.28 0.27 0.25 0.32 0.33 0.28 0.32 0.30 0.40 0.27 0.33 0.29 0.23 0.28 0.34 0.37 0.28 0.19 0.23 0.21 0.18 0.19 0.25 0.22 0.26 0.29 0.30 0.41 0.39 0.39 0.42 0.44 0.49 0.48 0.53 0.54 0.50 0.55 0.58 0.59 0.63 0.66 0.67 0.65 0.66 0.70 0.77 0.77 0.75 0.78 0.76 0.86 0.84 0.88 0.88 0.91 0.91 0.90 0.86 0.84 0.81 0.75 0.74 0.74 0.72 0.69 0.69 0.70 0.68 0.67 0.66 0.65 0.65 0.62 0.58 0.55 0.58 0.61 0.65 0.71 0.76 0.77 0.82 0.87 0.88
0.23 0.25 0.30 0.29 0.22 0.26 0.30 0.41 0.41 0.46 0.42 0.32 0.28 0.32 0.25 0.29 0.31 0.32 0.26 0.19 0.17 0.19 0.20 0.23 0.23 0.27 0.36 0.33 0.36 0.37 0.37 0.36 0.40 0.43 0.45 0.47 0.48 0.51 0.52 0.56 0.59 0.65 0.65 0.63 0.61 0.60 0.63 0.71 0.76 0.77 0.78 0.81 0.84 0.84 0.87 0.91 0.90 0.93 0.91 0.90 0.85 0.79 0.78 0.79 0.82 0.82 0.77 0.75 0.71 0.69 0.66 0.65 0.66 0.65 0.62 0.57 0.55 0.58 0.60 0.63 0.68 0.73 0.78 0.82 0.85 0.85
0.35 0.30 0.32 0.34 0.28 0.31 0.32 0.38 0.32 0.35 0.45 0.46 0.44 0.41 0.41 0.35 0.31 0.23 0.27 0.26 0.27 0.21 0.21 0.21 0.24 0.27 0.35 0.38 0.38 0.39 0.38 0.38 0.40 0.41 0.43 0.44 0.47 0.49 0.55 0.56 0.55 0.63 0.64 0.61 0.60 0.61 0.62 0.67 0.68 0.76 0.76 0.77 0.83 0.85 0.89 0.89 0.92 0.92 0.94 0.89 0.84 0.83 0.80 0.79 0.79 0.79 0.75 0.74 0.71 0.69 0.67 0.67 0.67 0.67 0.63 0.58 0.55 0.55 0.60 0.61 0.66 0.72 0.76 0.80 0.81 0.80
0.29 0.33 0.28 0.30 0.33 0.40 0.34 0.35 0.27 0.25 0.23 0.33 0.36 0.34 0.36 0.34 0.37 0.29 0.34 0.33 0.25 0.24 0.23 0.21 0.19 0.31 0.42 0.46 0.42 0.42 0.42 0.39 0.41 0.43 0.48 0.50 0.51 0.52 0.54 0.53 0.53 0.56 0.62 0.60 0.60 0.61 0.67 0.68 0.72 0.81 0.81 0.84 0.87 0.91 0.93 0.95 0.90 0.92 0.91 0.89 0.87 0.81 0.79 0.75 0.75 0.76 0.74 0.73 0.71 0.68 0.66 0.67 0.67 0.66 0.66 0.60 0.56 0.54 0.60 0.64 0.68 0.73 0.76 0.79 0.79 0.78
0.20 0.30 0.27 0.31 0.35 0.36 0.32 0.35 0.27 0.27 0.27 0.29 0.30 0.32 0.27 0.30 0.28 0.23 0.27 0.38 0.34 0.26 0.26 0.22 0.22 0.30 0.42 0.52 0.49 0.47 0.47 0.44 0.45 0.48 0.51 0.49 0.48 0.49 0.49 0.51 0.51 0.51 0.63 0.64 0.63 0.62 0.70 0.76 0.76 0.80 0.84 0.85 0.81 0.86 0.94 0.93 0.92 0.90 0.86 0.85 0.88 0.86 0.80 0.77 0.75 0.73 0.74 0.74 0.73 0.69 0.68 0.67 0.68 0.67 0.66 0.61 0.57 0.56 0.59 0.64 0.70 0.74 0.76 0.76 0.77 0.76
0.24 0.23 0.28 0.30 0.35 0.34 0.35 0.31 0.34 0.32 0.30 0.28 0.31 0.35 0.31 0.36 0.32 0.27 0.22 0.29 0.30 0.31 0.28 0.31 0.25 0.33 0.50 0.53 0.52 0.51 0.52 0.53 0.56 0.56 0.50 0.48 0.49 0.50 0.52 0.53 0.55 0.57 0.61 0.63 0.60 0.60 0.66 0.73 0.78 0.77 0.84 0.90 0.82 0.86 0.86 0.96 0.97 0.89 0.84 0.81 0.79 0.81 0.81 0.79 0.77 0.77 0.74 0.72 0.70 0.67 0.68 0.68 0.67 0.67 0.65 0.62 0.57 0.56 0.61 0.65 0.71 0.76 0.75 0.76 0.75 0.76
0.27 0.25 0.34 0.32 0.27 0.34 0.37 0.34 0.45 0.41 0.32 0.30 0.45 0.40 0.34 0.26 0.30 0.28 0.28 0.30 0.25 0.28 0.29 0.29 0.23 0.32 0.48 0.53 0.52 0.51 0.56 0.58 0.59 0.54 0.50 0.48 0.50 0.51 0.53 0.55 0.57 0.59 0.63 0.64 0.65 0.67 0.70 0.66 0.70 0.72 0.76 0.79 0.86 0.87 0.84 0.84 0.85 0.83 0.84 0.80 0.77 0.75 0.77 0.78 0.79 0.76 0.75 0.73 0.68 0.67 0.67 0.67 0.67 0.67 0.66 0.60 0.56 0.55 0.60 0.64 0.69 0.75 0.76 0.76 0.76 0.74
0.26 0.32 0.28 0.26 0.26 0.34 0.37 0.44 0.47 0.47 0.44 0.39 0.38 0.40 0.39 0.33 0.35 0.33 0.27 0.35 0.27 0.30 0.33 0.26 0.19 0.28 0.45 0.50 0.48 0.50 0.53 0.52 0.53 0.53 0.52 0.48 0.49 0.49 0.51 0.54 0.57 0.60 0.64 0.67 0.72 0.73 0.74 0.69 0.68 0.70 0.70 0.75 0.75 0.81 0.84 0.82 0.83 0.77 0.78 0.82 0.80 0.77 0.75 0.76 0.79 0.77 0.75 0.72 0.68 0.68 0.67 0.66 0.66 0.65 0.64 0.59 0.55 0.56 0.62 0.67 0.70 0.74 0.75 0.75 0.75 0.74
0.27 0.32 0.29 0.24 0.25 0.25 0.24 0.24 0.29 0.29 0.34 0.36 0.38 0.36 0.41 0.41 0.34 0.29 0.24 0.31 0.21 0.34 0.32 0.28 0.28 0.38 0.46 0.48 0.45 0.46 0.49 0.52 0.54 0.53 0.54 0.53 0.50 0.48 0.53 0.56 0.57 0.58 0.59 0.67 0.69 0.74 0.75 0.74 0.72 0.72 0.71 0.71 0.74 0.82 0.82 0.81 0.82 0.82 0.82 0.82 0.84 0.80 0.79 0.78 0.79 0.77 0.74 0.71 0.68 0.66 0.65 0.64 0.63 0.62 0.60 0.57 0.55 0.56 0.61 0.68 0.71 0.74 0.76 0.77 0.75 0.72
0.28 0.32 0.30 0.29 0.35 0.31 0.35 0.40 0.45 0.39 0.34 0.27 0.31 0.30 0.33 0.36 0.40 0.36 0.33 0.25 0.26 0.29 0.25 0.31 0.34 0.37 0.38 0.42 0.41 0.44 0.48 0.50 0.52 0.52 0.50 0.51 0.53 0.56 0.57 0.57 0.59 0.57 0.60 0.61 0.68 0.75 0.84 0.80 0.74 0.72 0.76 0.75 0.70 0.69 0.72 0.73 0.74 0.77 0.81 0.84 0.87 0.88 0.86 0.82 0.80 0.78 0.75 0.71 0.67 0.64 0.63 0.60 0.60 0.60 0.59 0.56 0.54 0.57 0.63 0.70 0.76 0.77 0.77 0.78 0.74 0.71
0.29 0.32 0.33 0.28 0.30 0.37 0.35 0.35 0.36 0.35 0.30 0.30 0.30 0.30 0.33 0.32 0.33 0.33 0.26 0.22 0.33 0.26 0.20 0.37 0.39 0.36 0.34 0.34 0.39 0.45 0.49 0.52 0.50 0.50 0.51 0.53 0.56 0.59 0.58 0.57 0.58 0.57 0.60 0.62 0.65 0.67 0.74 0.77 0.77 0.72 0.75 0.75 0.72 0.72 0.74 0.74 0.74 0.73 0.75 0.76 0.83 0.90 0.89 0.85 0.81 0.78 0.74 0.69 0.65 0.62 0.60 0.59 0.57 0.59 0.58 0.55 0.53 0.58 0.64 0.71 0.75 0.77 0.78 0.77 0.73 0.72
0.35 0.34 0.39 0.32 0.27 0.31 0.33 0.32 0.30 0.30 0.28 0.28 0.30 0.32 0.32 0.37 0.37 0.29 0.26 0.27 0.29 0.24 0.19 0.24 0.32 0.27 0.29 0.36 0.45 0.49 0.49 0.49 0.50 0.50 0.53 0.55 0.56 0.57 0.57 0.55 0.55 0.56 0.59 0.60 0.62 0.67 0.75 0.77 0.77 0.75 0.73 0.71 0.70 0.70 0.73 0.74 0.74 0.74 0.75 0.80 0.83 0.86 0.88 0.87 0.80 0.75 0.71 0.69 0.65 0.61 0.59 0.58 0.58 0.59 0.55 0.53 0.52 0.54 0.61 0.68 0.73 0.77 0.78 0.76 0.74 0.75
0.36 0.36 0.40 0.32 0.29 0.36 0.37 0.32 0.32 0.26 0.31 0.33 0.33 0.39 0.39 0.38 0.37 0.36 0.32 0.32 0.31 0.30 0.33 0.34 0.29 0.26 0.41 0.47 0.49 0.51 0.53 0.52 0.52 0.53 0.54 0.54 0.55 0.54 0.54 0.54 0.55 0.56 0.58 0.61 0.64 0.68 0.74 0.76 0.75 0.76 0.77 0.70 0.65 0.69 0.71 0.71 0.76 0.76 0.71 0.75 0.83 0.83 0.87 0.86 0.80 0.74 0.71 0.66 0.63 0.61 0.59 0.58 0.55 0.51 0.50 0.49 0.51 0.56 0.60 0.64 0.69 0.73 0.75 0.76 0.75 0.75
0.37 0.33 0.36 0.33 0.28 0.29 0.33 0.36 0.35 0.31 0.31 0.32 0.36 0.34 0.32 0.34 0.33 0.37 0.34 0.30 0.32 0.26 0.26 0.27 0.28 0.31 0.43 0.52 0.50 0.52 0.49 0.52 0.51 0.50 0.47 0.50 0.54 0.52 0.51 0.52 0.56 0.58 0.60 0.62 0.63 0.63 0.68 0.69 0.72 0.74 0.73 0.68 0.67 0.71 0.75 0.76 0.73 0.72 0.76 0.73 0.77 0.78 0.81 0.82 0.78 0.75 0.73 0.69 0.64 0.58 0.53 0.47 0.47 0.50 0.48 0.50 0.53 0.55 0.56 0.60 0.67 0.69 0.71 0.73 0.74 0.73
0.33 0.35 0.28 0.29 0.27 0.29 0.38 0.42 0.40 0.36 0.32 0.36 0.36 0.37 0.37 0.32 0.24 0.25 0.23 0.28 0.24 0.22 0.24 0.26 0.23 0.26 0.41 0.48 0.48 0.47 0.48 0.48 0.45 0.45 0.50 0.53 0.54 0.53 0.52 0.55 0.57 0.57 0.60 0.62 0.64 0.63 0.65 0.68 0.68 0.72 0.68 0.68 0.69 0.66 0.70 0.71 0.71 0.74 0.76 0.74 0.73 0.76 0.78 0.78 0.76 0.74 0.72 0.71 0.68 0.63 0.57 0.55 0.52 0.48 0.47 0.48 0.50 0.52 0.54 0.57 0.60 0.62 0.64 0.68 0.69 0.71
0.34 0.31 0.32 0.30 0.27 0.28 0.40 0.40 0.37 0.31 0.30 0.30 0.31 0.35 0.36 0.34 0.28 0.26 0.29 0.33 0.33 0.32 0.26 0.22 0.21 0.33 0.41 0.42 0.42 0.47 0.46 0.44 0.44 0.44 0.46 0.52 0.55 0.55 0.56 0.56 0.57 0.59 0.59 0.60 0.62 0.64 0.66 0.67 0.68 0.70 0.69 0.65 0.66 0.63 0.61 0.65 0.69 0.68 0.68 0.70 0.74 0.70 0.71 0.72 0.72 0.71 0.70 0.69 0.65 0.61 0.58 0.56 0.51 0.47 0.47 0.48 0.49 0.52 0.53 0.55 0.57 0.59 0.61 0.63 0.66 0.68
0.41 0.39 0.37 0.39 0.29 0.27 0.32 0.37 0.36 0.29 0.23 0.26 0.43 0.46 0.38 0.30 0.29 0.28 0.29 0.34 0.40 0.40 0.35 0.37 0.36 0.39 0.42 0.47 0.46 0.44 0.42 0.41 0.42 0.51 0.57 0.58 0.56 0.56 0.59 0.60 0.59 0.60 0.59 0.59 0.61 0.64 0.66 0.70 0.70 0.70 0.68 0.65 0.63 0.65 0.66 0.64 0.61 0.64 0.63 0.63 0.70 0.70 0.69 0.68 0.68 0.70 0.69 0.68 0.64 0.60 0.56 0.53 0.51 0.48 0.47 0.47 0.48 0.50 0.51 0.53 0.55 0.58 0.61 0.62 0.63 0.63
0.35 0.36 0.35 0.39 0.32 0.25 0.30 0.31 0.27 0.21 0.24 0.39 0.41 0.41 0.38 0.33 0.33 0.34 0.36 0.38 0.39 0.42 0.43 0.42 0.45 0.50 0.51 0.50 0.47 0.46 0.45 0.44 0.52 0.56 0.57 0.60 0.58 0.58 0.59 0.59 0.61 0.59 0.59 0.59 0.60 0.62 0.65 0.69 0.69 0.70 0.68 0.65 0.64 0.64 0.64 0.61 0.63 0.67 0.68 0.67 0.65 0.69 0.66 0.64 0.65 0.65 0.64 0.63 0.65 0.62 0.55 0.53 0.52 0.49 0.48 0.48 0.47 0.48 0.48 0.50 0.53 0.54 0.56 0.57 0.58 0.60
0.38 0.33 0.32 0.31 0.32 0.31 0.25 0.21 0.14 0.20 0.36 0.42 0.42 0.39 0.36 0.30 0.31 0.32 0.30 0.32 0.35 0.37 0.39 0.36 0.42 0.47 0.49 0.48 0.47 0.45 0.46 0.43 0.53 0.58 0.60 0.61 0.66 0.67 0.63 0.62 0.62 0.60 0.57 0.60 0.60 0.62 0.65 0.68 0.68 0.70 0.69 0.69 0.67 0.64 0.63 0.64 0.62 0.62 0.64 0.65 0.64 0.64 0.65 0.64 0.62 0.59 0.59 0.61 0.62 0.60 0.56 0.54 0.52 0.49 0.48 0.45 0.46 0.47 0.48 0.49 0.51 0.50 0.52 0.53 0.54 0.57
0.43 0.43 0.38 0.30 0.34 0.24 0.25 0.24 0.22 0.28 0.29 0.40 0.37 0.39 0.33 0.27 0.32 0.33 0.25 0.26 0.35 0.39 0.41 0.41 0.41 0.40 0.40 0.40 0.40 0.42 0.45 0.49 0.50 0.56 0.65 0.65 0.67 0.67 0.66 0.63 0.63 0.63 0.64 0.64 0.67 0.67 0.67 0.68 0.70 0.72 0.71 0.71 0.70 0.66 0.67 0.67 0.67 0.65 0.65 0.65 0.67 0.68 0.67 0.64 0.61 0.59 0.60 0.57 0.57 0.61 0.60 0.57 0.56 0.51 0.46 0.44 0.43 0.45 0.46 0.47 0.48 0.49 0.51 0.50 0.51 0.53
0.38 0.33 0.43 0.33 0.30 0.29 0.25 0.23 0.23 0.24 0.19 0.29 0.43 0.45 0.44 0.41 0.30 0.29 0.23 0.20 0.36 0.38 0.36 0.40 0.40 0.37 0.35 0.38 0.40 0.44 0.43 0.45 0.49 0.53 0.61 0.65 0.63 0.63 0.63 0.63 0.63 0.64 0.66 0.67 0.69 0.71 0.72 0.73 0.72 0.74 0.77 0.74 0.73 0.73 0.71 0.69 0.67 0.65 0.65 0.65 0.66 0.67 0.67 0.66 0.63 0.62 0.61 0.60 0.59 0.62 0.63 0.60 0.56 0.52 0.49 0.46 0.43 0.43 0.45 0.47 0.48 0.49 0.52 0.50 0.50 0.50
0.38 0.36 0.39 0.36 0.33 0.31 0.26 0.20 0.18 0.15 0.20 0.37 0.39 0.41 0.42 0.41 0.33 0.31 0.24 0.25 0.43 0.46 0.43 0.40 0.38 0.36 0.34 0.35 0.37 0.40 0.38 0.37 0.48 0.52 0.58 0.61 0.61 0.61 0.60 0.61 0.63 0.66 0.67 0.66 0.67 0.68 0.71 0.73 0.72 0.71 0.73 0.74 0.72 0.75 0.75 0.73 0.71 0.68 0.65 0.66 0.65 0.65 0.65 0.66 0.65 0.64 0.62 0.61 0.59 0.59 0.60 0.59 0.58 0.56 0.51 0.46 0.43 0.43 0.42 0.44 0.46 0.47 0.48 0.49 0.50 0.50
0.34 0.34 0.33 0.28 0.26 0.29 0.28 0.25 0.22 0.26 0.25 0.34 0.45 0.43 0.44 0.41 0.34 0.28 0.19 0.28 0.47 0.48 0.45 0.40 0.38 0.38 0.38 0.38 0.39 0.40 0.36 0.34 0.41 0.52 0.59 0.62 0.61 0.62 0.60 0.60 0.59 0.63 0.64 0.66 0.68 0.70 0.72 0.71 0.70 0.71 0.72 0.72 0.74 0.76 0.76 0.76 0.74 0.70 0.67 0.67 0.67 0.65 0.64 0.66 0.67 0.67 0.65 0.66 0.66 0.65 0.61 0.59 0.57 0.53 0.48 0.45 0.45 0.45 0.43 0.44 0.45 0.45 0.46 0.46 0.47 0.49
0.26 0.30 0.31 0.25 0.25 0.26 0.25 0.24 0.25 0.26 0.30 0.38 0.44 0.46 0.46 0.39 0.32 0.20 0.21 0.39 0.53 0.50 0.48 0.45 0.43 0.40 0.38 0.39 0.41 0.37 0.44 0.48 0.50 0.53 0.54 0.54 0.56 0.58 0.60 0.61 0.61 0.63 0.64 0.65 0.66 0.68 0.66 0.69 0.73 0.72 0.72 0.72 0.73 0.74 0.75 0.76 0.74 0.71 0.71 0.70 0.66 0.65 0.67 0.70 0.70 0.67 0.67 0.67 0.67 0.68 0.66 0.63 0.59 0.56 0.55 0.52 0.48 0.43 0.41 0.42 0.42 0.45 0.46 0.44 0.41 0.44
0.30 0.30 0.29 0.29 0.25 0.24 0.27 0.26 0.27 0.30 0.43 0.47 0.51 0.49 0.48 0.31 0.19 0.22 0.46 0.56 0.54 0.51 0.49 0.47 0.42 0.42 0.42 0.43 0.43 0.44 0.45 0.49 0.52 0.52 0.53 0.54 0.54 0.54 0.57 0.59 0.61 0.62 0.66 0.67 0.67 0.66 0.69 0.71 0.73 0.73 0.73 0.74 0.74 0.76 0.75 0.73 0.71 0.70 0.71 0.71 0.69 0.69 0.72 0.73 0.71 0.68 0.67 0.67 0.67 0.67 0.66 0.64 0.63 0.60 0.55 0.52 0.50 0.45 0.41 0.43 0.45 0.44 0.42 0.41 0.38 0.33
0.36 0.30 0.28 0.27 0.28 0.28 0.26 0.23 0.24 0.21 0.47 0.55 0.53 0.51 0.48 0.26 0.22 0.40 0.45 0.52 0.49 0.44 0.41 0.41 0.41 0.45 0.47 0.45 0.48 0.48 0.49 0.51 0.52 0.53 0.53 0.54 0.54 0.54 0.55 0.57 0.58 0.61 0.64 0.65 0.66 0.69 0.68 0.66 0.68 0.69 0.70 0.72 0.73 0.74 0.78 0.77 0.71 0.69 0.70 0.69 0.71 0.74 0.74 0.74 0.71 0.68 0.67 0.67 0.67 0.67 0.67 0.67 0.64 0.63 0.59 0.54 0.49 0.46 0.45 0.44 0.42 0.41 0.41 0.38 0.34 0.30
0.47 0.37 0.35 0.34 0.36 0.27 0.27 0.24 0.23 0.29 0.45 0.53 0.46 0.35 0.40 0.31 0.29 0.36 0.37 0.33 0.37 0.43 0.47 0.48 0.48 0.49 0.50 0.50 0.51 0.52 0.52 0.50 0.49 0.50 0.53 0.56 0.55 0.54 0.54 0.56 0.59 0.61 0.63 0.64 0.65 0.67 0.69 0.67 0.68 0.68 0.70 0.71 0.72 0.72 0.74 0.76 0.73 0.71 0.69 0.69 0.75 0.75 0.75 0.76 0.73 0.70 0.67 0.67 0.67 0.67 0.67 0.68 0.68 0.66 0.61 0.55 0.51 0.47 0.43 0.41 0.41 0.38 0.37 0.34 0.32 0.30
0.41 0.38 0.41 0.35 0.43 0.36 0.32 0.36 0.50 0.50 0.52 0.56 0.47 0.41 0.40 0.44 0.42 0.41 0.41 0.37 0.33 0.36 0.41 0.39 0.41 0.50 0.53 0.51 0.49 0.49 0.50 0.51 0.50 0.52 0.53 0.54 0.56 0.54 0.52 0.56 0.58 0.60 0.62 0.64 0.66 0.68 0.66 0.66 0.66 0.66 0.66 0.70 0.71 0.71 0.71 0.74 0.74 0.73 0.69 0.71 0.76 0.77 0.75 0.75 0.74 0.70 0.68 0.68 0.68 0.67 0.68 0.69 0.69 0.68 0.63 0.57 0.53 0.50 0.48 0.46 0.43 0.38 0.36 0.33 0.35 0.37
0.42 0.44 0.57 0.43 0.37 0.42 0.42 0.41 0.45 0.47 0.56 0.55 0.52 0.46 0.42 0.42 0.39 0.35 0.34 0.35 0.42 0.47 0.49 0.44 0.42 0.48 0.55 0.58 0.52 0.53 0.53 0.54 0.52 0.52 0.53 0.54 0.53 0.55 0.58 0.57 0.59 0.62 0.63 0.64 0.65 0.67 0.68 0.69 0.67 0.66 0.65 0.68 0.71 0.71 0.72 0.71 0.73 0.74 0.76 0.77 0.77 0.78 0.77 0.75 0.74 0.71 0.68 0.70 0.71 0.70 0.70 0.69 0.70 0.71 0.68 0.62 0.57 0.52 0.49 0.46 0.41 0.37 0.33 0.34 0.39 0.43
0.44 0.44 0.42 0.34 0.38 0.32 0.25 0.32 0.33 0.34 0.37 0.42 0.54 0.57 0.54 0.50 0.46 0.42 0.38 0.37 0.39 0.44 0.46 0.45 0.44 0.45 0.47 0.50 0.52 0.51 0.50 0.53 0.52 0.51 0.50 0.50 0.50 0.51 0.54 0.55 0.57 0.59 0.60 0.61 0.65 0.67 0.67 0.67 0.66 0.66 0.67 0.67 0.70 0.69 0.68 0.68 0.70 0.73 0.80 0.81 0.80 0.78 0.77 0.75 0.74 0.72 0.71 0.70 0.71 0.71 0.71 0.69 0.69 0.70 0.71 0.67 0.58 0.51 0.46 0.42 0.43 0.43 0.35 0.34 0.40 0.43
0.36 0.48 0.40 0.39 0.37 0.30 0.26 0.27 0.31 0.36 0.39 0.41 0.38 0.37 0.40 0.44 0.48 0.49 0.47 0.45 0.43 0.46 0.49 0.50 0.50 0.47 0.47 0.46 0.50 0.52 0.52 0.54 0.53 0.53 0.55 0.54 0.54 0.54 0.52 0.53 0.55 0.57 0.61 0.63 0.64 0.66 0.64 0.65 0.66 0.67 0.67 0.65 0.67 0.67 0.66 0.66 0.69 0.72 0.73 0.79 0.83 0.82 0.78 0.76 0.75 0.74 0.72 0.70 0.71 0.71 0.70 0.69 0.69 0.69 0.68 0.67 0.67 0.59 0.49 0.44 0.45 0.43 0.37 0.38 0.46 0.47
0.44 0.44 0.36 0.41 0.37 0.39 0.40 0.38 0.35 0.35 0.33 0.33 0.34 0.38 0.42 0.44 0.42 0.40 0.40 0.42 0.46 0.45 0.46 0.47 0.49 0.48 0.47 0.46 0.47 0.49 0.51 0.55 0.56 0.55 0.54 0.55 0.56 0.56 0.57 0.59 0.59 0.58 0.60 0.63 0.65 0.65 0.62 0.63 0.64 0.65 0.66 0.66 0.70 0.69 0.66 0.66 0.69 0.73 0.75 0.77 0.83 0.84 0.79 0.74 0.73 0.73 0.73 0.73 0.72 0.72 0.72 0.71 0.70 0.69 0.68 0.66 0.63 0.60 0.54 0.48 0.48 0.42 0.37 0.36 0.36 0.42
0.45 0.38 0.41 0.40 0.36 0.34 0.33 0.34 0.36 0.30 0.30 0.33 0.37 0.44 0.47 0.50 0.52 0.51 0.48 0.43 0.41 0.41 0.41 0.39 0.43 0.50 0.52 0.51 0.49 0.48 0.47 0.50 0.54 0.56 0.55 0.57 0.57 0.59 0.59 0.60 0.61 0.61 0.62 0.65 0.66 0.65 0.63 0.64 0.66 0.66 0.66 0.67 0.69 0.70 0.69 0.70 0.72 0.73 0.75 0.77 0.79 0.83 0.82 0.79 0.76 0.74 0.73 0.73 0.72 0.73 0.73 0.72 0.71 0.71 0.70 0.70 0.69 0.63 0.58 0.53 0.48 0.44 0.40 0.40 0.30 0.24
0.40 0.41 0.40 0.36 0.33 0.31 0.34 0.37 0.42 0.40 0.40 0.39 0.38 0.40 0.43 0.44 0.42 0.41 0.45 0.46 0.44 0.42 0.40 0.38 0.37 0.40 0.45 0.47 0.48 0.47 0.48 0.51 0.54 0.55 0.55 0.56 0.58 0.59 0.59 0.61 0.61 0.61 0.63 0.66 0.63 0.60 0.59 0.62 0.65 0.66 0.67 0.70 0.71 0.69 0.69 0.71 0.74 0.75 0.76 0.77 0.79 0.82 0.82 0.81 0.77 0.74 0.74 0.73 0.72 0.73 0.74 0.73 0.72 0.73 0.73 0.73 0.74 0.71 0.63 0.56 0.52 0.49 0.47 0.45 0.39 0.32
Wind_Speed
3 2 2 2 3 4 5 4 6 8 7 7 8 8 7 6 6 4 4 6 6 7 7 5 6 7 6 6 7 8 10 10 10 10 10 11 12 13 13 12 13 14 12 10 9 8 8 9 10 10 10 10 11 11 12 12 12 12 12 12 13 13 14 15 15 15 16 16 15 15 14 13 13 13 12 12 12 12 12 13 13 14 14 14 14 14
2 2 2 3 4 6 7 7 8 8 9 8 8 8 7 6 6 7 7 7 7 8 8 7 7 6 6 6 6 7 9 11 11 11 11 11 12 13 14 12 13 14 12 10 9 8 9 9 10 10 10 11 11 12 12 12 12 11 12 13 13 13 14 14 15 15 15 15 15 14 14 13 12 12 12 12 12 12 12 12 12 13 13 14 14 14
3 3 4 5 6 7 7 7 8 9 9 8 7 7 8 6 6 7 8 8 8 8 8 9 7 5 5 7 8 8 10 11 12 11 11 11 11 13 15 13 12 12 12 11 9 9 9 10 10 11 11 12 12 12 13 12 12 12 12 13 13 13 13 14 15 15 15 15 14 14 14 13 12 12 12 12 12 13 12 12 12 12 13 13 14 14
1 2 3 6 5 6 7 7 8 8 7 7 7 6 8 7 6 6 6 8 9 8 8 9 7 6 7 9 10 9 10 11 11 11 11 11 11 13 13 12 11 12 13 13 12 11 10 11 11 12 12 12 12 13 13 12 12 13 13 13 13 13 13 14 14 15 15 14 14 13 14 13 12 12 12 12 12 12 13 13 13 13 13 13 14 14
3 4 5 6 5 5 7 6 6 6 5 8 6 5 8 8 7 7 7 7 8 7 6 8 8 8 8 8 9 10 11 11 11 11 11 11 11 12 11 11 12 13 13 14 15 14 12 11 12 13 13 13 13 13 13 13 13 13 13 13 13 13 13 13 14 14 14 14 14 13 14 13 12 12 12 12 12 12 12 12 13 13 13 13 13 14
6 6 6 6 5 5 6 6 7 5 5 7 4 5 8 8 8 9 8 7 7 7 5 6 9 8 6 6 8 9 11 11 11 11 11 11 12 13 12 12 13 13 13 14 15 15 14 13 14 14 13 13 13 13 13 13 13 13 13 13 13 13 13 13 13 14 13 13 14 14 14 13 13 13 12 12 12 12 12 12 12 12 12 12 13 13
8 8 6 7 7 6 5 5 7 6 6 5 4 6 9 8 8 9 8 8 7 7 6 7 9 8 8 9 8 8 9 10 11 10 9 10 12 13 12 11 12 13 14 14 15 16 15 14 14 15 15 14 13 14 13 13 13 13 13 13 13 13 13 13 13 13 13 13 14 14 14 14 13 13 12 12 12 12 12 11 11 11 11 11 12 12
9 9 8 8 8 7 6 6 7 7 6 5 6 8 8 8 8 8 8 7 6 7 8 8 9 8 9 9 8 8 9 9 9 8 8 10 12 11 11 11 11 12 13 13 14 16 16 15 15 15 15 14 14 14 13 13 14 14 13 13 13 12 12 13 13 13 13 13 14 14 14 14 13 13 13 12 12 12 12 11 11 10 10 11 11 12
8 9 9 9 9 8 8 7 8 7 5 6 9 8 7 7 7 7 7 6 7 8 7 7 7 8 7 5 7 10 10 9 8 8 10 11 11 11 11 11 11 12 13 13 14 14 15 15 15 15 14 14 15 15 14 14 14 14 14 13 13 13 12 12 13 13 13 13 13 13 14 14 13 13 13 13 12 12 12 11 11 10 10 10 10 11
9 9 8 9 8 9 9 7 8 7 5 7 8 7 6 6 5 6 6 7 8 7 7 8 7 8 8 7 8 10 10 10 8 9 10 10 10 10 10 10 11 11 12 12 13 13 13 13 14 14 14 14 15 15 14 14 14 14 14 13 13 12 12 12 13 13 13 13 13 13 13 14 13 13 13 13 13 12 12 12 11 11 10 10 10 10
9 9 9 10 9 9 9 7 6 6 7 7 7 7 7 6 6 6 6 6 7 6 7 8 6 7 8 8 10 11 11 10 9 9 10 10 10 10 9 10 10 10 11 11 11 12 12 12 12 13 14 15 15 14 13 14 14 14 13 12 12 12 12 12 12 13 13 13 13 13 13 13 13 13 13 13 13 13 12 12 11 11 11 11 11 10
7 8 9 10 10 9 10 9 6 4 6 7 8 9 8 7 7 5 4 4 5 6 7 6 6 7 8 10 11 11 10 10 10 10 9 8 9 9 8 9 9 9 10 11 11 11 11 10 11 12 13 14 14 13 13 13 13 13 13 12 12 12 12 12 12 13 13 12 12 12 12 13 13 13 13 13 13 13 13 12 12 12 12 11 11 11
7 8 9 8 9 10 11 10 8 7 7 8 9 9 9 9 8 6 5 5 5 7 8 8 9 8 8 11 12 11 10 11 12 11 8 7 9 9 8 8 8 9 9 9 9 9 9 10 11 12 13 13 14 13 13 13 13 13 12 12 12 12 12 12 12 12 13 12 12 12 12 13 13 13 13 13 13 13 13 13 13 13 12 12 12 12
6 7 8 8 9 10 11 10 9 9 9 9 10 9 9 9 8 8 7 7 7 8 9 10 10 8 8 10 12 12 12 12 12 12 11 9 8 9 9 8 8 8 7 8 8 8 9 11 11 12 13 13 13 13 12 12 13 12 12 12 13 12 12 12 12 12 13 12 12 12 13 13 13 13 13 13 13 13 13 13 13 13 13 13 13 13
5 6 8 9 9 9 11 10 9 9 8 9 10 9 9 9 8 8 8 8 8 9 10 10 10 9 9 10 12 12 12 12 12 13 15 13 10 10 12 10 8 8 8 8 8 9 10 11 11 12 13 13 12 13 12 12 12 12 12 13 13 12 12 12 12 13 13 13 12 13 13 13 13 13 13 13 13 13 13 13 13 13 14 14 14 14
5 6 7 8 8 9 10 9 9 9 8 9 9 8 9 9 8 7 7 7 8 8 8 8 9 9 9 10 12 12 11 12 13 13 14 13 11 13 13 11 10 10 10 9 8 10 11 10 11 12 12 11 11 12 12 12 12 12 12 13 12 12 12 12 13 13 13 13 13 13 14 14 13 13 13 13 13 14 13 13 13 13 14 14 14 14
5 5 6 7 7 8 9 9 9 9 8 9 9 9 8 8 8 8 6 5 7 7 7 8 9 9 8 9 11 12 12 12 13 12 12 11 11 14 13 11 12 12 11 11 11 12 12 11 11 11 11 11 12 12 11 11 12 12 12 12 12 12 12 12 13 13 13 13 13 13 14 14 13 13 14 14 14 14 14 14 13 14 14 14 14 14
4 4 5 7 6 6 8 7 6 8 9 9 10 9 8 6 6 8 7 6 8 8 7 9 9 9 9 9 11 12 13 13 13 13 12 11 12 14 12 13 14 12 11 13 13 14 13 12 11 10 10 11 11 11 11 11 11 11 12 12 12 12 13 13 13 13 13 13 13 13 13 14 14 13 14 14 14 14 14 14 14 14 15 15 15 15
4 3 4 6 6 5 6 6 5 6 8 9 9 9 8 7 6 8 8 8 8 8 8 9 10 10 10 10 11 13 14 15 15 14 14 13 14 14 13 13 14 12 12 13 13 14 14 13 12 12 11 11 11 11 11 11 11 11 12 12 12 12 12 12 12 13 13 13 13 14 14 14 14 14 14 14 14 14 14 15 15 15 15 15 15 15
3 3 3 5 6 4 5 6 6 6 7 8 8 7 8 8 7 8 8 7 8 9 9 10 10 9 9 10 12 14 15 15 15 15 15 15 15 15 14 14 15 14 13 13 13 13 12 12 13 13 12 11 11 11 11 11 11 11 11 11 12 12 12 12 12 13 13 14 14 14 14 14 14 14 14 14 14 14 15 15 15 15 15 15 15 15
3 3 3 4 4 4 4 7 8 7 7 8 8 8 8 8 7 6 6 7 8 9 9 10 10 8 9 11 13 14 15 15 15 15 15 16 16 16 16 15 16 15 14 14 14 14 13 11 12 12 12 11 11 11 11 11 11 11 11 11 11 11 12 12 12 13 13 13 14 14 14 14 14 14 14 14 15 15 15 15 15 15 16 15 16 16
3 3 4 4 3 3 4 6 7 6 6 6 7 8 8 8 8 7 5 7 9 9 9 9 9 8 9 11 13 14 15 15 15 16 16 16 16 16 17 16 16 15 14 15 15 14 13 11 10 11 11 11 11 11 11 11 11 11 11 11 11 11 11 12 12 13 13 13 13 14 14 14 14 14 14 15 15 15 15 15 15 15 16 16 16 16
3 2 4 4 3 3 3 5 7 6 5 5 5 7 8 8 8 7 7 8 10 9 9 9 9 8 9 12 13 14 14 14 15 16 16 16 16 17 17 17 17 15 14 15 15 14 12 10 9 10 10 11 11 10 10 11 11 11 11 11 11 11 11 12 12 13 13 13 13 13 13 14 14 14 15 15 15 15 15 15 15 15 16 16 16 17
3 2 3 5 2 1 3 4 6 6 5 4 4 6 8 8 8 7 7 8 9 9 10 9 8 8 9 11 13 14 14 15 15 15 16 16 16 17 17 17 17 16 15 14 13 12 13 11 10 10 10 10 10 10 10 10 11 11 11 11 11 12 12 12 13 13 13 13 13 13 14 14 14 15 15 15 15 15 15 15 15 16 16 16 17 17
3 3 4 5 3 1 2 3 4 5 5 4 5 7 8 8 8 8 8 7 7 9 10 9 9 9 10 11 14 15 15 15 15 15 16 16 17 17 17 17 17 16 15 15 13 13 13 13 12 11 11 11 10 10 10 10 11 11 11 11 12 12 13 13 13 13 13 13 13 13 14 15 15 15 15 15 15 15 15 15 15 16 16 17 17 18
3 4 4 5 4 3 4 4 4 5 6 5 6 7 7 8 8 8 8 7 7 9 11 9 9 11 12 14 15 15 15 15 15 16 16 16 17 18 17 16 17 16 16 15 15 14 14 14 13 12 12 12 11 10 10 11 11 12 12 12 12 12 13 14 14 14 14 13 14 14 15 15 15 15 15 14 15 15 15 15 15 15 16 16 17 18
3 4 4 4 5 5 5 5 5 6 7 6 7 8 8 8 8 8 8 7 8 11 10 8 11 14 14 15 16 16 15 15 15 16 17 16 17 17 16 16 17 16 16 15 15 14 14 14 13 13 13 13 12 12 12 12 12 13 13 13 13 13 13 13 13 14 14 13 14 15 15 15 15 15 15 14 14 15 14 15 15 16 16 16 17 17
3 4 3 3 5 5 5 5 5 6 7 7 7 8 7 8 8 7 7 8 10 10 8 9 14 16 15 16 16 15 14 14 15 16 17 17 16 16 16 16 17 17 16 16 15 14 13 13 13 13 13 13 13 14 14 13 13 14 14 14 13 13 13 13 13 13 13 14 15 15 15 15 16 15 13 13 14 14 14 15 16 16 16 16 16 17
4 5 3 3 5 5 5 5 5 6 7 6 7 7 7 7 7 6 7 9 9 9 9 12 15 15 14 15 14 13 14 15 15 16 16 15 15 16 17 17 17 17 17 16 16 15 14 13 13 13 13 13 14 14 14 14 14 14 14 14 14 14 13 13 12 13 13 14 15 15 15 15 15 14 13 13 14 14 14 15 16 16 16 16 16 17
4 5 4 5 6 6 5 5 5 6 7 7 7 7 7 7 6 6 7 8 8 9 10 12 14 13 12 13 12 13 15 15 15 15 15 15 15 16 16 16 17 17 17 16 16 15 14 14 13 13 13 14 14 14 14 14 14 14 15 15 14 14 13 12 12 13 13 14 15 15 15 15 15 14 14 15 15 14 14 15 15 16 16 16 16 17
4 5 5 6 7 8 7 6 5 6 8 8 7 7 6 6 7 7 7 8 8 9 10 11 12 12 10 11 13 14 15 15 15 16 16 15 15 15 15 16 17 17 17 16 16 15 14 14 14 15 15 15 15 15 14 14 15 15 14 14 14 14 13 12 12 13 14 14 15 15 15 15 15 14 15 15 15 15 14 14 14 15 16 16 16 17
5 6 6 5 7 8 6 6 6 7 9 9 9 7 5 5 7 7 7 7 7 7 9 10 10 10 11 13 14 14 15 16 16 16 16 15 15 15 15 16 17 17 16 16 16 15 15 15 15 15 16 16 16 16 15 15 15 15 14 14 14 13 13 12 13 14 14 15 15 15 15 15 14 14 14 15 15 15 14 15 15 16 16 16 17 17
7 7 7 6 7 7 4 5 7 8 9 9 8 6 5 5 6 7 7 7 6 6 8 9 9 10 13 15 14 14 15 16 16 16 15 14 14 14 14 15 16 17 17 16 16 16 16 16 16 16 16 16 16 16 16 15 15 14 14 14 13 13 13 13 13 14 14 15 15 15 15 15 14 14 14 14 14 14 14 15 15 15 16 16 17 17
8 9 9 8 9 8 6 6 7 9 8 7 6 5 5 6 7 7 8 9 8 7 8 9 10 12 14 14 14 14 15 15 16 15 13 13 13 13 14 16 16 17 17 17 16 16 16 16 16 16 16 16 16 16 16 15 15 14 14 14 13 13 13 13 14 14 15 15 15 15 15 15 14 14 14 14 14 14 14 15 15 15 16 16 17 17
9 9 9 9 9 9 9 8 8 8 7 5 6 6 6 7 7 8 9 10 10 10 10 11 12 12 13 14 14 14 15 15 15 14 14 13 13 13 14 16 17 17 17 17 16 16 16 16 16 16 16 16 16 16 16 15 15 14 13 13 14 13 13 14 14 15 15 15 15 15 15 15 14 14 14 14 14 14 15 15 15 15 16 16 16 17
9 9 9 9 9 9 9 9 8 8 6 5 7 7 7 7 8 8 10 11 10 11 11 11 12 12 12 13 14 14 15 15 15 14 14 13 12 13 15 16 17 17 17 17 17 16 16 16 16 17 16 16 17 17 16 16 16 15 14 14 14 14 14 14 15 15 15 15 15 15 15 15 14 14 14 14 14 14 14 15 15 15 15 16 16 16
10 10 9 10 10 9 10 10 10 10 9 7 6 6 6 7 8 8 10 12 11 11 10 10 11 11 12 13 14 14 15 16 15 13 13 14 13 15 16 17 17 17 17 17 16 16 16 16 16 17 17 17 17 17 17 16 16 15 14 14 14 14 14 15 15 15 15 16 16 15 15 15 14 14 14 14 14 14 14 14 15 15 15 15 15 15
11 11 10 10 10 10 10 11 10 11 10 7 6 6 7 8 9 9 11 13 11 10 10 9 10 11 12 13 13 14 15 15 13 12 13 15 15 16 17 17 17 17 17 17 17 16 16 16 17 17 17 18 18 17 17 17 16 16 15 15 14 14 14 15 15 15 15 15 15 15 14 14 14 14 14 14 14 15 15 15 15 15 15 15 15 15
12 11 11 11 11 10 11 11 10 10 9 7 6 7 8 8 9 10 12 12 9 7 8 8 10 12 13 14 14 14 14 14 13 13 14 15 16 18 18 18 18 17 17 17 17 16 16 16 17 18 18 18 18 18 17 17 17 17 16 16 15 15 15 15 15 15 15 15 15 15 14 14 14 14 14 14 15 15 15 15 15 15 15 15 15 15
13 12 11 12 12 12 12 12 11 11 10 8 7 7 7 8 9 11 11 10 8 7 7 9 12 13 14 14 14 13 13 13 14 15 16 16 18 19 19 18 18 18 18 17 17 16 16 17 18 18 18 18 18 19 18 18 17 17 17 17 16 16 15 15 15 15 15 15 15 15 15 14 14 14 14 15 15 15 15 15 15 15 15 15 15 15
12 12 12 12 13 12 12 12 12 12 11 8 7 7 7 8 10 11 10 9 8 9 9 11 13 15 14 14 14 13 13 14 15 16 17 18 18 19 19 19 18 18 18 17 17 17 18 18 17 17 18 19 19 19 19 18 18 18 18 18 17 17 16 16 16 15 15 15 15 15 15 15 14 14 14 14 15 15 15 14 14 15 15 14 15 15
12 12 12 13 13 13 13 13 13 12 10 8 8 8 8 9 11 10 10 10 10 11 13 14 15 15 15 15 15 15 15 16 17 18 18 18 18 19 19 19 18 18 18 18 18 18 18 18 18 18 19 19 19 19 19 19 19 19 19 18 18 18 17 16 16 16 15 15 15 15 15 15 15 15 14 14 15 15 15 14 14 15 14 15 15 15
11 11 11 12 12 12 13 13 13 12 9 7 8 9 10 11 11 11 11 13 13 13 15 15 15 15 15 15 16 16 17 17 18 18 19 19 19 19 19 19 19 19 18 18 18 18 18 19 19 20 20 20 20 20 19 19 19 19 19 19 19 18 18 17 16 16 16 15 15 15 15 15 15 15 15 15 15 15 15 15 14 14 14 15 15 15
12 12 12 12 11 11 12 12 11 11 9 8 9 10 12 13 13 14 14 15 15 15 15 15 16 15 15 16 17 17 18 18 18 19 19 19 20 20 19 19 19 19 19 19 19 19 19 19 19 20 21 20 20 21 20 20 19 19 19 20 20 19 18 17 17 16 16 16 16 16 16 15 15 15 15 15 15 15 15 14 14 14 14 14 14 14
12 11 11 11 11 11 11 10 9 9 9 11 12 13 13 14 16 16 16 16 17 17 16 16 16 16 16 17 18 18 19 19 19 19 19 19 20 20 19 19 19 20 20 20 20 20 20 20 20 21 21 21 21 21 21 20 20 19 20 20 20 20 19 18 17 17 16 16 16 16 16 16 15 15 15 15 15 15 15 14 14 14 14 14 14 13
13 12 11 12 13 13 14 14 13 13 13 14 16 16 16 17 17 17 17 17 17 17 17 18 18 18 18 19 19 19 19 19 20 20 20 20 20 20 19 20 20 20 20 21 20 20 21 21 21 22 22 22 21 21 21 21 21 20 20 20 20 20 19 19 18 17 16 16 16 16 16 16 16 15 15 15 15 15 15 15 14 14 14 14 14 12
16 15 14 15 16 16 15 15 16 16 16 16 16 17 17 17 18 18 18 18 18 18 18 18 19 19 20 20 20 20 20 20 21 21 20 20 21 21 20 20 20 21 21 21 21 22 22 22 22 22 22 22 22 22 22 22 21 21 21 20 20 20 19 19 18 17 17 17 17 17 16 16 16 15 15 15 15 15 15 15 14 14 13 13 13 12
15 15 15 16 17 17 17 17 17 18 18 18 18 19 19 19 19 18 18 18 19 19 19 19 20 20 20 21 21 21 21 21 21 21 21 21 21 21 21 21 21 21 22 22 22 23 23 22 22 22 22 22 22 22 23 22 22 21 21 21 20 20 20 19 19 18 18 17 17 17 17 16 16 15 15 15 15 15 15 14 14 13 12 13 13 12
14 14 15 16 17 18 18 19 19 20 21 20 20 19 20 19 19 19 19 19 19 20 20 21 21 21 21 21 22 22 22 22 22 22 22 22 22 22 22 22 22 23 23 23 23 23 23 23 23 23 23 23 23 23 23 23 22 22 21 21 21 20 20 20 19 19 18 18 17 17 17 16 16 15 15 15 15 15 15 14 14 13 13 13 13 13
18 18 18 18 19 19 19 18 19 20 20 19 18 18 19 19 19 19 20 21 21 22 22 23 23 23 22 23 23 23 23 23 23 23 23 23 23 23 22 23 23 24 23 23 23 24 24 23 23 23 23 23 23 23 23 23 22 22 22 21 21 20 20 20 20 20 19 18 18 17 17 16 16 15 15 15 15 15 15 15 15 14 14 14 14 14
20 20 19 20 21 21 21 21 20 20 21 21 20 20 21 21 21 21 22 23 24 24 24 25 25 24 24 24 24 24 24 24 24 24 24 24 24 23 23 23 24 24 23 24 24 24 24 23 23 23 23 23 23 23 23 23 22 22 22 22 22 21 21 20 20 20 19 19 18 18 17 17 17 16 16 16 16 15 15 15 15 15 15 15 14 14
Wind_Direction
298 295 324 306 274 313 341 328 312 312 307 305 306 316 332 334 326 309 316 327 307 292 293 292 286 265 258 275 274 277 278 271 268 272 275 272 272 272 272 272 262 256 255 247 246 254 260 265 267 272 277 282 288 292 296 300 304 307 309 315 320 323 327 329 330 333 334 333 332 330 328 324 318 314 309 305 302 300 297 292 285 279 277 275 274 274
331 313 295 306 307 311 324 322 314 309 304 311 317 323 326 315 311 306 301 303 289 288 296 297 297 274 254 279 289 287 283 275 273 273 268 269 273 270 270 273 268 264 262 250 247 254 262 266 268 274 280 283 287 291 294 297 300 304 308 312 318 319 322 328 330 332 334 334 333 332 329 325 319 316 312 307 304 302 299 295 288 281 278 276 273 273
339 316 292 317 329 311 304 302 306 308 305 314 317 319 325 320 316 305 292 300 294 288 299 307 310 290 266 282 286 282 283 280 276 274 270 270 269 263 264 272 273 271 271 266 259 257 264 269 271 277 282 283 286 290 292 294 295 300 305 308 313 316 319 324 328 331 333 334 334 333 331 327 321 318 314 309 305 304 300 296 291 284 280 277 272 271
359 336 334 343 336 311 311 306 306 310 314 324 307 299 322 325 319 306 299 315 308 291 304 319 320 304 294 292 286 284 288 288 283 279 278 274 269 264 264 270 271 270 272 270 269 270 269 271 275 278 280 283 284 287 289 290 293 297 300 303 308 313 317 320 324 329 331 333 333 333 332 329 325 322 317 312 308 305 302 296 290 285 281 277 273 272
61 18 360 343 332 321 325 328 330 324 331 341 317 290 312 310 301 304 310 318 311 301 309 319 315 303 299 294 288 293 298 294 285 280 281 278 275 273 272 273 270 269 268 264 268 277 278 277 280 278 278 282 283 284 285 287 291 294 296 300 304 308 313 317 322 326 328 330 332 332 333 332 328 326 322 318 315 311 307 299 292 287 283 279 274 272
44 25 3 343 349 357 344 349 358 345 334 345 331 305 319 320 314 314 315 313 312 319 322 322 316 310 314 308 293 294 299 294 284 279 280 285 284 277 275 274 269 268 269 265 264 272 281 285 283 280 279 280 281 283 284 286 289 292 294 298 301 303 307 313 319 323 325 328 331 331 333 332 329 328 326 322 320 316 313 307 297 291 287 282 275 272
35 29 31 19 17 16 9 14 14 1 345 354 353 332 333 330 320 318 321 319 321 332 340 337 322 316 330 329 316 304 303 302 294 285 283 290 289 281 281 278 270 269 272 271 265 266 277 283 280 279 280 278 278 281 283 285 287 289 292 295 298 300 302 309 315 320 324 328 330 330 332 330 327 327 326 323 320 317 316 312 305 297 291 286 278 273
28 31 40 30 25 29 31 31 21 7 358 17 13 348 341 334 328 331 330 323 329 334 331 333 324 317 325 325 328 329 318 313 309 303 297 293 289 284 286 283 274 271 271 271 269 268 273 276 274 275 276 277 279 281 282 283 285 287 288 291 295 297 300 305 312 316 320 326 328 329 330 329 325 324 324 322 321 317 315 314 309 303 296 291 283 276
34 34 33 25 29 37 34 26 21 11 354 10 8 354 348 341 337 339 335 332 340 338 332 338 335 330 336 334 338 343 336 329 328 325 317 307 300 292 289 288 280 273 271 271 272 271 271 271 271 273 274 276 280 280 280 282 284 285 286 287 291 295 297 302 308 312 316 322 325 326 328 328 325 323 322 320 319 318 315 314 310 306 302 297 289 283
43 38 34 32 34 34 31 24 24 22 7 5 1 352 346 342 342 343 346 350 349 349 349 353 351 344 356 4 351 351 347 340 340 333 327 324 315 304 297 295 287 278 274 273 273 273 271 270 271 272 275 277 279 280 279 281 283 284 285 285 287 292 294 297 303 308 313 318 322 323 325 326 325 323 321 317 317 317 315 313 310 307 305 301 296 291
51 54 49 43 36 30 25 16 25 33 19 12 5 359 357 357 4 3 6 7 359 2 354 348 350 342 353 8 3 0 354 348 350 337 331 331 320 311 307 301 292 284 281 275 272 273 273 274 275 275 276 279 280 281 279 281 283 283 284 284 284 289 291 294 299 304 309 313 317 319 321 324 324 323 321 317 315 314 313 312 310 308 305 302 299 295
61 62 50 44 39 31 23 20 39 46 18 15 16 16 15 15 20 19 26 26 14 11 359 352 355 347 356 8 6 5 358 353 355 347 345 339 320 314 312 305 297 289 284 277 272 275 276 279 282 279 279 281 279 279 278 280 283 283 282 282 283 287 289 291 295 299 304 307 311 315 318 320 322 321 320 318 315 313 311 309 307 306 304 302 299 296
59 50 43 48 45 33 24 28 42 43 28 24 25 23 22 22 25 27 27 23 20 18 9 6 4 1 11 7 3 9 4 360 0 358 4 352 328 325 319 310 306 298 295 294 288 287 289 291 292 287 285 283 278 277 276 278 282 283 282 281 282 284 286 288 290 293 299 303 306 311 315 318 319 320 319 317 314 312 310 306 303 302 301 300 298 297
51 49 44 45 41 28 25 31 36 34 27 24 26 26 25 28 27 26 23 14 15 10 2 8 10 10 21 11 7 13 9 10 12 7 7 359 344 342 337 326 318 313 316 313 300 298 300 298 296 292 289 285 280 276 275 278 281 281 282 282 281 283 284 285 287 289 295 299 302 307 312 315 316 317 318 317 314 312 309 304 301 300 299 298 297 295
33 53 44 30 29 26 28 35 32 26 23 22 27 24 25 33 28 21 20 16 14 3 359 12 15 12 21 16 12 16 16 18 20 17 12 5 356 354 352 344 332 329 328 314 300 302 305 301 297 296 294 290 284 279 276 278 279 279 281 282 282 283 283 282 284 288 292 295 298 304 309 311 312 314 315 315 313 312 309 304 300 299 298 297 295 294
25 56 46 27 32 31 29 34 27 23 28 27 24 20 27 33 19 6 10 12 6 357 3 16 12 11 19 17 13 16 17 13 11 12 10 4 355 353 353 345 336 336 329 318 311 309 308 306 302 300 298 294 289 283 278 279 279 278 280 282 282 282 281 281 283 285 288 291 295 301 305 306 309 312 314 313 312 311 308 304 301 300 299 297 296 294
26 53 41 27 43 40 29 30 32 30 30 24 20 22 25 21 15 11 14 12 358 355 8 8 4 10 12 9 9 8 7 4 360 359 1 359 350 348 351 344 337 336 327 319 317 313 310 307 302 299 299 295 290 286 281 280 280 279 280 281 281 281 282 282 282 284 287 289 293 298 301 303 306 310 312 312 311 309 305 303 302 301 300 299 297 295
25 37 37 29 38 42 28 26 38 34 26 21 22 22 15 12 22 17 10 10 2 1 8 0 1 12 6 3 6 5 4 3 359 359 360 359 351 348 354 348 339 337 329 321 318 315 312 307 302 302 301 297 293 290 286 284 284 284 283 283 283 283 283 283 281 283 287 289 292 295 298 300 303 307 309 309 308 306 304 302 301 301 300 299 298 296
22 14 37 27 21 34 29 22 33 34 28 26 22 21 21 20 17 9 7 11 4 360 4 358 360 12 10 4 4 3 2 360 357 358 357 355 352 351 354 348 341 340 333 324 319 316 311 306 304 305 304 302 299 294 290 287 287 287 286 286 285 285 285 284 282 282 285 287 290 293 295 297 301 304 306 307 306 305 304 302 300 300 300 299 299 298
23 3 29 26 20 32 30 25 29 26 22 21 17 17 22 16 8 7 8 9 1 357 1 358 359 13 15 4 2 2 0 357 355 356 355 352 352 351 352 347 342 339 335 330 326 323 315 305 302 303 305 305 304 299 296 293 291 289 288 288 287 286 287 286 284 283 284 286 288 290 292 295 299 302 304 306 306 304 304 303 301 300 301 301 301 300
15 3 11 11 22 38 34 26 23 16 8 10 15 17 15 11 8 5 5 12 6 357 359 358 359 16 13 360 0 1 355 351 352 355 354 351 351 350 349 346 342 340 339 337 334 331 325 313 306 306 306 306 306 302 298 296 294 292 291 290 289 288 288 288 287 286 286 286 287 289 292 295 298 301 302 305 305 303 303 302 301 301 302 303 303 302
4 0 349 348 16 37 27 17 9 7 6 2 7 11 11 10 8 2 7 17 7 356 356 351 348 3 3 354 356 356 351 350 352 355 354 351 353 352 348 348 346 345 346 344 342 341 336 326 317 311 308 309 311 308 303 300 298 295 292 292 291 289 290 290 288 288 287 286 287 290 293 295 298 300 302 304 304 303 303 303 302 302 303 304 304 303
357 340 327 340 13 20 12 16 10 9 11 1 1 7 8 9 10 3 357 360 355 349 350 345 345 2 2 353 353 353 351 353 353 353 352 352 355 354 352 352 350 350 350 347 346 347 341 332 323 314 309 311 314 315 312 307 304 299 295 295 295 292 292 291 289 288 287 285 287 291 293 295 298 299 301 303 304 303 302 302 303 303 303 304 304 304
352 335 319 319 323 29 28 18 10 9 8 2 8 11 5 2 3 354 344 347 346 346 351 349 353 9 4 352 353 355 353 353 353 352 352 353 354 353 352 352 352 353 353 350 350 350 343 336 329 323 318 314 310 311 309 304 304 303 298 297 299 297 296 293 291 291 288 286 287 291 293 295 297 298 300 303 303 302 302 302 302 303 303 303 304 305
347 347 342 326 313 37 27 354 357 9 7 3 12 10 1 357 354 346 339 338 340 352 360 349 345 1 1 349 351 356 353 350 351 351 351 350 349 349 349 350 351 352 352 352 351 349 345 342 337 331 328 323 313 308 306 303 303 303 300 298 298 298 298 295 293 292 290 288 288 291 294 296 298 299 301 302 301 302 302 302 302 303 303 304 305 306
338 339 342 342 341 350 354 346 349 356 354 357 3 0 357 355 351 345 341 336 340 351 351 343 340 347 346 342 346 351 352 349 349 349 348 347 347 347 348 349 350 350 352 353 350 347 347 347 344 338 332 328 322 314 309 305 303 304 304 302 299 298 299 296 292 292 291 289 289 292 295 297 299 300 301 302 301 301 301 301 303 304 304 306 307 308
328 327 319 326 336 342 351 349 338 334 338 343 344 345 348 347 342 341 335 331 342 342 336 347 353 343 338 341 341 343 348 348 346 345 346 347 347 347 348 349 349 348 350 350 349 347 344 342 343 339 332 331 330 323 316 311 309 307 306 305 303 302 301 298 294 292 291 290 291 292 295 298 299 297 298 301 301 300 300 301 303 304 305 307 308 309
311 308 307 307 310 319 335 338 330 327 330 333 335 336 338 334 332 336 328 324 337 337 326 338 346 339 336 338 337 342 349 347 343 343 344 345 346 346 347 347 347 347 349 350 350 346 339 336 339 339 336 337 336 329 323 317 313 311 309 307 307 305 303 301 296 293 292 291 292 293 295 298 297 295 296 301 301 299 299 301 304 305 306 307 309 310
306 301 315 317 302 304 313 320 323 325 326 328 329 329 330 327 324 326 323 321 328 328 320 327 333 332 333 337 342 352 351 343 340 339 339 343 344 344 344 345 346 346 347 348 348 345 341 339 341 342 341 341 338 332 326 320 316 314 312 310 308 306 305 303 299 297 295 294 293 294 295 297 297 298 300 302 301 298 297 300 304 306 306 307 309 311
301 305 323 319 305 299 293 300 313 318 318 317 317 318 323 330 329 322 321 323 323 321 320 324 326 327 333 341 347 349 343 338 340 339 339 342 343 342 342 344 346 347 346 346 347 346 347 347 346 346 343 339 334 329 326 323 320 317 313 311 310 308 306 304 303 301 299 298 298 298 296 297 298 300 300 299 298 296 297 300 303 306 307 307 309 311
286 304 315 309 304 297 279 274 295 309 309 305 304 308 319 338 341 332 327 328 327 324 324 325 324 327 340 349 346 343 341 340 342 342 341 342 342 342 343 344 345 346 346 347 346 345 348 348 345 343 342 338 335 331 328 327 324 320 315 311 309 308 306 304 304 304 303 302 302 300 297 297 299 299 298 297 297 297 298 300 303 306 307 308 309 310
272 291 301 298 304 306 282 262 286 305 302 292 289 290 301 328 332 326 326 326 324 327 327 327 326 328 341 346 342 342 344 341 341 343 342 342 343 343 343 343 343 345 346 346 346 344 344 344 343 342 342 340 338 335 332 329 326 323 320 315 310 309 308 306 306 307 308 307 306 302 299 298 298 298 297 297 298 299 300 302 303 305 307 308 310 310
268 278 286 287 297 306 292 271 292 305 301 295 293 288 287 305 312 313 317 315 316 325 328 328 328 330 336 338 337 341 344 342 340 340 340 341 341 341 343 343 342 343 344 344 344 343 341 341 341 342 342 340 340 338 335 332 329 326 324 321 315 311 309 308 308 309 309 309 308 306 302 298 296 295 296 297 298 299 301 303 304 305 306 307 309 310
268 272 280 285 289 293 291 288 295 299 297 302 312 308 297 298 300 304 308 306 308 313 315 317 322 326 330 333 336 340 342 339 338 341 343 342 339 339 342 342 341 343 343 341 341 341 340 339 340 341 341 340 340 339 337 335 332 328 325 323 320 316 311 308 307 308 309 310 310 308 305 300 295 294 296 297 299 300 301 303 305 306 306 306 308 309
265 269 277 284 284 287 293 295 293 295 298 301 308 313 312 307 303 304 306 306 306 307 306 307 311 317 323 329 334 338 338 337 338 340 340 339 338 339 339 339 340 341 339 338 338 338 337 337 337 338 338 338 337 337 336 334 332 328 325 323 322 320 315 310 307 307 308 309 310 310 307 301 296 294 295 296 297 299 301 302 304 306 307 307 308 308
264 267 274 280 281 282 286 285 286 298 302 292 296 308 314 312 310 309 309 309 307 306 307 307 312 319 324 329 333 335 336 337 336 337 342 346 344 340 337 336 337 337 336 335 336 336 335 336 335 335 334 334 334 334 334 333 332 328 324 322 321 319 317 314 309 306 307 308 308 309 307 304 299 295 295 296 296 297 298 300 302 305 307 308 308 307
264 267 270 273 275 278 281 279 283 294 293 282 286 299 306 314 317 314 314 314 310 306 307 311 317 323 326 328 331 332 335 336 335 341 349 349 342 338 335 334 334 334 334 333 332 333 332 331 331 331 331 330 331 332 332 332 331 329 323 319 318 317 317 316 313 309 306 305 306 306 306 306 303 299 295 294 294 295 297 298 301 304 305 306 307 308
257 262 266 271 272 274 280 282 285 291 293 284 280 288 301 315 321 318 317 316 310 302 302 310 318 323 326 327 329 332 335 336 338 344 344 340 339 338 336 334 334 335 334 332 330 330 329 329 329 329 328 328 328 328 328 328 328 327 323 319 316 315 314 315 315 313 308 305 304 305 305 305 305 302 298 296 295 295 296 297 299 302 304 305 307 308
254 257 262 270 274 272 275 279 281 286 293 290 279 285 301 313 319 319 315 316 316 308 303 310 319 324 326 326 327 331 334 334 338 343 341 338 338 336 333 333 333 333 332 330 329 328 328 329 329 328 326 326 325 325 325 324 324 323 322 319 317 314 313 313 315 315 311 307 304 303 303 304 304 303 302 299 296 295 295 296 298 300 303 305 307 308
252 256 258 262 268 269 271 275 278 283 289 285 273 283 303 313 317 316 314 318 328 326 315 315 319 322 324 324 324 326 328 331 335 336 334 332 332 332 332 332 331 329 329 329 330 329 328 327 327 327 325 324 324 324 323 321 320 319 318 318 316 314 312 311 312 313 313 309 304 301 300 301 301 301 300 298 296 295 294 295 296 298 300 303 305 307
249 252 254 258 262 264 266 271 276 282 287 279 267 278 300 309 309 309 310 317 325 323 319 316 316 319 321 320 321 320 321 325 328 327 327 327 328 329 330 330 328 327 328 328 328 327 325 324 325 326 326 325 324 323 323 321 319 317 315 314 314 313 312 311 310 311 311 310 307 302 299 299 299 298 298 298 297 295 293 292 294 296 299 303 305 305
248 249 251 255 260 263 267 270 275 280 282 271 265 276 292 301 304 306 306 310 312 312 312 312 313 316 317 316 317 318 318 320 322 322 323 325 325 327 328 329 328 328 327 326 325 325 325 324 324 324 325 325 323 322 322 320 317 316 314 312 311 311 311 310 309 308 308 308 307 305 301 299 298 297 296 297 298 296 293 291 292 294 298 301 302 304
247 248 250 253 257 264 268 269 274 279 275 261 266 280 285 291 304 311 306 304 306 306 308 310 310 312 313 313 314 314 316 318 319 320 321 323 324 325 327 328 328 327 326 325 324 325 325 324 322 322 324 324 323 322 321 319 317 316 314 311 309 310 310 309 307 306 306 305 306 306 303 299 297 295 295 295 297 297 293 291 291 293 295 297 300 302
246 244 252 257 255 258 264 269 276 280 268 256 269 284 281 280 294 304 302 301 303 304 305 307 308 308 309 310 311 313 314 316 317 318 319 321 322 323 324 326 326 325 325 325 324 324 325 324 323 323 323 322 322 322 321 319 317 315 313 310 309 309 309 307 306 305 304 303 304 305 304 300 296 293 292 293 295 295 293 290 289 290 292 294 297 299
250 246 255 261 256 256 265 273 280 279 265 260 272 285 286 284 289 295 296 297 299 301 302 304 306 307 307 308 309 311 312 313 314 316 317 319 320 321 321 323 324 323 323 324 324 324 323 323 323 322 321 320 321 321 320 319 317 314 312 311 309 308 307 306 304 303 302 300 301 303 304 302 297 293 291 291 293 293 292 291 289 289 290 292 292 293
254 252 257 263 263 265 271 273 275 278 274 270 274 281 285 287 290 293 294 295 296 297 299 301 304 306 306 306 308 309 310 311 312 313 315 317 318 318 318 319 321 321 322 322 323 324 323 323 321 320 319 319 320 320 319 319 317 314 312 311 310 308 306 304 302 301 299 298 299 300 302 302 299 294 290 290 291 292 292 291 289 287 289 291 291 291
253 251 253 260 264 267 271 272 274 278 279 277 278 280 282 284 286 288 291 293 295 295 296 299 302 304 305 305 306 307 308 309 309 310 312 313 314 315 315 317 319 320 320 321 322 323 323 321 319 318 318 318 319 319 318 317 316 315 314 312 310 308 305 303 301 300 298 296 296 297 298 300 299 294 290 288 289 290 291 290 288 286 287 290 291 290
255 251 253 259 262 264 268 273 275 278 280 280 281 282 283 283 284 287 288 290 291 292 293 296 298 300 302 303 304 305 306 306 306 307 308 309 311 312 313 314 317 318 319 320 321 321 320 319 318 317 317 317 317 318 317 316 316 315 314 312 310 308 305 302 300 298 296 295 294 294 295 297 296 294 291 289 287 287 288 289 288 287 287 289 289 287
257 256 257 261 264 267 270 273 275 278 279 278 279 282 284 284 284 287 289 289 289 290 292 294 295 297 298 300 302 303 303 304 304 305 305 306 308 309 309 311 314 316 317 318 319 318 317 316 316 315 316 316 317 317 317 316 316 315 315 313 310 308 305 302 299 297 295 294 293 292 292 294 294 292 290 289 287 285 285 286 287 286 286 287 285 282
257 260 262 263 266 269 272 275 278 279 279 279 282 287 289 287 285 285 287 289 289 290 292 294 295 295 296 298 299 300 301 302 302 302 303 304 305 306 307 308 311 314 315 316 316 316 315 315 315 315 315 316 317 317 317 317 316 316 315 314 312 308 305 302 300 297 294 292 291 291 290 290 291 291 290 288 286 283 282 283 284 285 286 287 285 280
260 263 265 266 268 271 275 278 280 280 280 280 282 284 286 288 287 286 286 287 288 289 291 293 294 295 295 296 297 297 298 299 299 300 301 302 303 304 306 307 308 311 314 315 315 314 314 314 315 315 315 315 316 316 317 317 316 316 315 314 313 310 306 303 300 297 294 291 289 288 287 287 288 289 290 288 286 283 281 280 281 283 285 285 284 282